Regional Weather Roundup
Issued by NWS

Home | Current Version | Previous Version | Text Only | Print | Product List | Glossary Off
Versions: 1 2 3 4 5 6 7 8 9 10 11 12 13 14 15 16 17 18 19 20 21 22 23 24 25 26 27 28 29 30 31 32 33 34 35 36 37 38 39 40 41 42 43 44 45 46 47 48 49 50

000
ASUS45 KTFX 291610
RWRMT
MONTANA REGIONAL WEATHER ROUNDUP
NATIONAL WEATHER SERVICE GREAT FALLS MT
1000 AM MDT FRI MAY 29 2015

NOTE: "FAIR" INDICATES FEW OR NO CLOUDS BELOW 12000 FEET WITH NO
SIGNIFICANT WEATHER AND/OR OBSTRUCTIONS TO VISIBILITY.

MTZ001>007-043-291700-
WEST OF THE DIVIDE

CITY           SKY/WX    TMP DP  RH WIND       PRES   REMARKS
KALISPELL      SUNNY     61  43  51 CALM      30.17F
MISSOULA       SUNNY     61  43  51 SE15      30.18F
BUTTE          MOSUNNY   54  41  61 VRB7      30.27F
MULLAN PASS    MOSUNNY   48  43  82 SE8       30.19F
DEER LODGE       N/A     57  46  67 SE6       30.27F
EUREKA           N/A     63  45  51 CALM      30.16F
HAMILTON         N/A     57  45  62 N3        30.18F
LIBBY            N/A     55  48  76 E3        30.18S
RONAN            N/A     63  48  57 CALM      30.21S
$$

MTZ008-052>055-291700-
SOUTHWEST MONTANA

CITY           SKY/WX    TMP DP  RH WIND       PRES   REMARKS
BOZEMAN        PTSUNNY   54  47  77 N6        30.27S
DILLON         CLOUDY    50  44  80 W6        30.27F
W YELLOWSTONE  PTSUNNY   48  39  71 E7        30.31F
THREE FORKS      N/A     55  19  24 CALM      30.24F
TWIN BRIDGES     N/A     53  43  69 S2        30.23S
$$

MTZ009-010-012-014-046-048-049-054-291700-
EAST SLOPES AND CENTRAL MONTANA

CITY           SKY/WX    TMP DP  RH WIND       PRES   REMARKS
CUT BANK       CLOUDY    47  42  83 SE12      30.25F
GREAT FALLS    CLOUDY    48  44  86 CALM      30.27F
MALMSTROM AFB  CLOUDY    49  45  85 NE6       30.28F
HELENA         MOSUNNY   55  43  63 E5        30.25F
CONRAD           N/A     50  47  89 E5        30.26F
$$

MTZ011-013-016-021-045-047-050-051-291700-
NORTH CENTRAL MONTANA

CITY           SKY/WX    TMP DP  RH WIND       PRES   REMARKS
HAVRE          SUNNY     55  42  61 NE6       30.29F
LEWISTOWN      PTSUNNY   52  42  69 SE9       30.30F
N BAR RANCH    CLOUDY    45  39  81 SE5       30.35S
CHINOOK          N/A     52  39  62 E10G16    30.31F
FORT BENTON      N/A     54  45  71 NE8       30.29F
$$

MTZ017>020-022>027-061-062-291700-
NORTHEAST MONTANA

CITY           SKY/WX    TMP DP  RH WIND       PRES   REMARKS
GLASGOW        MOSUNNY   48  33  56 NE9       30.35S
JORDAN           N/A     48  34  58 N7        30.34F
SIDNEY         PTSUNNY   48  30  49 N8        30.33S
WOLF POINT     MOSUNNY   48  33  56 N9        30.36S
MALTA            N/A     51  36  56 NE1       30.30F
PLENTYWOOD       N/A     45  30  57 N7        30.34R
POPLAR           N/A     45  28  53 N9        30.36S
$$

MTZ028>42-056>058-291700-
SOUTHCENTRAL AND SOUTHEAST MONTANA

CITY           SKY/WX    TMP DP  RH WIND       PRES   REMARKS
BAKER          PTSUNNY   47  34  60 N10       30.30S
BILLINGS       CLOUDY    47  41  80 NE7       30.33S
LIVINGSTON     CLOUDY    50  49  96 NE13      30.29S
MILES CITY     MOSUNNY   49  31  49 N7        30.32F
BIG TIMBER       N/A     46  45  93 E8        30.32S
EKALAKA          N/A     42  34  73 NW9       30.24R
LAUREL           N/A     48  41  77 NE3       30.29S
ROUNDUP          N/A     49  36  61 E1        30.22S
$$

REGIONAL REPORTS...DAKOTAS

CITY           SKY/WX    TMP DP  RH WIND       PRES   REMARKS
WILLISTON      CLOUDY    47  33  58 N9G20     30.33R
MINOT          CLOUDY    46  33  60 NW17      30.27R
DICKINSON      CLOUDY    45  33  63 N16       30.26R
BEACH          PTSUNNY   45  32  61 N13       30.31R
CROSBY         CLOUDY    45  32  61 NE10      30.34R
WATFORD CITY   CLOUDY    45  34  65 N13G18    30.29S
BISMARCK       CLOUDY    51  35  54 N18G25    30.22R
GRAND FORKS    CLOUDY    45  37  73 N26G33    30.15R
FARGO          CLOUDY    47  41  80 N30       30.10R
BUFFALO SD       N/A     48  39  71 N17       30.19R
RAPID CITY     CLOUDY    47  45  93 N24G31    30.21R
$$

REGIONAL REPORTS...WYOMING/IDAHO/WASHINGTON

CITY           SKY/WX    TMP DP  RH WIND       PRES   REMARKS
GILLETTE       CLOUDY    42  41  96 NW14      30.29R FOG
SHERIDAN       CLOUDY    44  42  93 N5        30.32S FOG
BUFFALO WY     CLOUDY    44  43  96 N7        30.31R FOG
CODY           CLOUDY    48  45  87 N7        30.30F
YELLOWSTONE LA   N/A     42  37  82 VRB3      30.36S
IDAHO FALLS    SUNNY     58  43  57 N9        30.24S
SALMON         PTSUNNY   55  45  67 CALM      30.20F
BOISE          SUNNY     71  46  40 E8        30.11S
SPOKANE        PTSUNNY   65  51  60 NE9       30.06F
$$

REGIONAL REPORTS...ALBERTA

CITY           SKY/WX    TMP DP  RH WIND       PRES   REMARKS
EDMONTON       SUNNY     54  30  40 SE14G20   30.30S
CALGARY        CLOUDY    52  37  58 S15       30.22F
LETHBRIDGE     PTSUNNY   54  45  71 SE9       30.23F
MEDICINE HAT   MOSUNNY   54  34  47 NE7       30.29F
$$

REGIONAL REPORTS...SASKATCHEWAN

CITY           SKY/WX    TMP DP  RH WIND       PRES   REMARKS
SWIFT CURRENT  MOSUNNY   46  30  53 VRB8      30.35S
REGINA         MOSUNNY   46  27  46 N9G17     30.37R
SASKATOON      MOSUNNY   48  27  43 VRB3      30.43R
$$



USA.gov is the U.S. government's official web portal to all federal, state and local government web resources and services.